Weather Roundup
Issued by NWS Springfield, MO

Home | Current Version | Previous Version | Text Only | Print | Product List | Glossary On
Versions: 1 2 3 4 5 6 7 8 9 10 11 12 13 14 15 16 17 18 19 20 21 22 23 24 25 26 27 28 29 30 31 32 33 34 35 36 37 38 39 40 41 42 43 44 45 46 47 48 49 50
000
NZUS99 KSGF 260307
HRRSGF

HOURLY WEATHER
NATIONAL WEATHER SERVICE SPRINGFIELD MO
900 PM CST TUE NOV 25 2014

......SGF CWA......

CITY           SKY/WX    TMP DP  RH WIND       PRES   REMARKS
SPRINGFIELD    PTCLDY    29  19  66 S5        30.12S WCI  24
JOPLIN         CLOUDY    37  22  54 SE7       30.12S WCI  32
WEST PLAINS    CLEAR     27  19  72 CALM      30.15F
ROLLA          CLEAR     29  16  58 SE7       30.12F WCI  22
OSAGE BEACH    CLEAR     28  16  59 SE3       30.13S
BRANSON        CLEAR     34  19  55 S3        30.14S

......SURROUNDING SGF CWA......

CITY           SKY/WX    TMP DP  RH WIND       PRES   REMARKS
CHANUTE        MOCLDY    37  24  59 S8        30.07F WCI  31
PARSONS        MOCLDY    38  23  55 S5        30.09F WCI  34
COFFEYVILLE    CLOUDY    37  25  61 SE6       30.09F WCI  32
EMPORIA        CLOUDY    39  24  55 S15       29.99F WCI  31
GROVE OK       CLOUDY    36  28  75 CALM      30.14S
ROGERS AR      MOCLDY    36  23  59 S3        30.14S
SILOAM SPRINGS CLOUDY    36  19  51 E3        30.14S
HARRISON AR    CLEAR     33  21  61 S3        30.14F
NEAR YELLVILLE CLEAR     30  19  64 CALM      30.16F

......KANSAS AND MISSOURI......

CITY           SKY/WX    TMP DP  RH WIND       PRES   REMARKS
KANSAS CTY INT CLOUDY    37  21  52 S12       30.03F WCI  29
DOWNTOWN KC    CLOUDY    39  20  46 S9        30.05F WCI  33
COLUMBIA       CLEAR     31  15  52 SE7       30.13S WCI  24
SEDALIA        PTCLDY    30  20  66 S9        30.12S WCI  22
ST JOSEPH      CLOUDY    36  22  56 S9        30.03F WCI  29
ST LOUIS       PTCLDY    30  22  72 E7        30.19R WCI  23
SPIRIT OF STL  CLEAR     26  22  84 CALM      30.17S
KIRKSVILLE     CLEAR     24  19  81 S5        30.11S WCI  18
WICHITA        CLOUDY    43  27  53 S13       29.99F
TOPEKA         CLOUDY    41  23  48 S10       30.02F
OLATHE         CLOUDY    35  22  58 S8        30.04F WCI  29

......TENNESSEE......

CITY           SKY/WX    TMP DP  RH WIND       PRES   REMARKS
MEMPHIS        CLEAR     36  28  73 CALM      30.21R
NASHVILLE      CLOUDY    42  27  55 NW6       30.17R

......ARKANSAS.......

CITY           SKY/WX    TMP DP  RH WIND       PRES   REMARKS
FAYETTEVILLE   MOCLDY    31  26  82 CALM      30.14F
FT SMITH       PTCLDY    37  27  67 CALM      30.16S
LITTLE ROCK    CLEAR     38  25  59 CALM      30.20S

......OKLAHOMA.......

CITY           SKY/WX    TMP DP  RH WIND       PRES   REMARKS
TULSA          CLOUDY    45  22  40 S8        30.10S
PONCA CITY     CLOUDY    44  27  51 SE12      30.03F
MCALESTER      CLOUDY    43  29  57 CALM      30.13S
OKLAHOMA CITY  CLOUDY    45  28  51 S9        30.06F

......IOWA............

CITY           SKY/WX    TMP DP  RH WIND       PRES   REMARKS
DES MOINES     MOCLDY    29  13  51 SE10      30.03F WCI  20
QUAD CITIES    CLEAR     17  13  84 E5        30.15S WCI  10

......ILLINOIS........

CITY           SKY/WX    TMP DP  RH WIND       PRES   REMARKS
QUINCY         CLEAR     27  20  75 SE5       30.14S WCI  22
CHICAGO        PTCLDY    18  14  84 S5        30.18R WCI  11



USA.gov is the U.S. government's official web portal to all federal, state and local government web resources and services.